KOZAKOV Weather Reports


Display with metric or nautical units.
time (UTC)temp
F
wind
direction
speed
MPH
gust
MPH
rain 1hr
in
rain 24hr
in
rain mn
in
humidity
%
barometer
mb
20260505010017 55 201 16.0 18.0 0.00 0.00 0.00 79
20260505005518 55 191 13.0 18.0 0.00 0.00 0.00 78
20260505005018 55 182 11.0 16.0 0.00 0.00 0.00 80
20260505004518 55 187 9.0 13.0 0.00 0.00 0.00 81
20260505004017 55 178 9.0 11.0 0.00 0.00 0.00 87
20260505003517 54 162 9.0 13.0 0.00 0.00 0.00 95
20260505003017 54 183 9.0 11.0 0.00 0.00 0.00 88
20260505002517 54 185 7.0 9.0 0.00 0.00 0.00 83
20260505002025 55 190 9.0 13.0 0.00 0.00 0.00 80
20260505001518 55 194 7.0 13.0 0.00 0.00 0.00 80
20260505001018 55 204 9.0 11.0 0.00 0.00 0.00 78
20260505000518 55 169 7.0 9.0 0.00 0.00 0.00 77
20260505000018 55 172 7.0 9.0 0.00 0.00 0.00 71
20260504235517 57 133 9.0 11.0 0.00 0.00 0.00 66
20260504235024 59 115 16.0 18.0 0.00 0.00 0.00 66
20260504234517 59 112 13.0 18.0 0.00 0.00 0.00 65
20260504234017 57 109 13.0 16.0 0.00 0.00 0.00 66
20260504233518 57 107 13.0 16.0 0.00 0.00 0.00 63
20260504233017 59 103 13.0 13.0 0.00 0.00 0.00 62
20260504232517 59 103 11.0 13.0 0.00 0.00 0.00 59
20260504232020 59 102 11.0 13.0 0.00 0.00 0.00 60
20260504231524 59 98 11.0 11.0 0.00 0.00 0.00 59
20260504231016 59 103 11.0 13.0 0.00 0.00 0.00 58
20260504230517 59 100 11.0 11.0 0.00 0.00 0.00 59
20260504230017 59 98 9.0 9.0 0.00 0.00 0.00 58
20260504225517 59 99 11.0 11.0 0.00 0.00 0.00 58
20260504225018 59 85 9.0 9.0 0.00 0.00 0.00 57
20260504224518 59 85 9.0 11.0 0.00 0.00 0.00 55
20260504224017 61 80 7.0 9.0 0.00 0.00 0.00 55
20260504223522 61 69 7.0 7.0 0.00 0.00 0.00 55
20260504223017 61 69 9.0 9.0 0.00 0.00 0.00 56
20260504222516 59 69 9.0 9.0 0.00 0.00 0.00 56
20260504222020 61 69 9.0 9.0 0.00 0.00 0.00 56
20260504221518 61 69 7.0 7.0 0.00 0.00 0.00 55
20260504220518 61 66 7.0 7.0 0.00 0.00 0.00 55
20260504220018 61 66 7.0 7.0 0.00 0.00 0.00 54
20260504215517 61 56 7.0 7.0 0.00 0.00 0.00 54
20260504215018 61 52 7.0 7.0 0.00 0.00 0.00 54
20260504214517 61 43 7.0 7.0 0.00 0.00 0.00 54
20260504214017 61 44 7.0 7.0 0.00 0.00 0.00 54
20260504213517 61 49 7.0 7.0 0.00 0.00 0.00 54
20260504212019 61 76 4.0 4.0 0.00 0.00 0.00 54
20260504211517 61 87 2.0 2.0 0.00 0.00 0.00 53
20260504210518 61 87 2.0 2.0 0.00 0.00 0.00 51
20260504205517 61 87 2.0 2.0 0.00 0.00 0.00 52
20260504205017 61 87 2.0 2.0 0.00 0.00 0.00 53
20260504204017 61 87 4.0 4.0 0.00 0.00 0.00 53
20260504203517 61 87 4.0 4.0 0.00 0.00 0.00 51
20260504203018 61 87 2.0 2.0 0.00 0.00 0.00 51
20260504202517 61 87 2.0 2.0 0.00 0.00 0.00 52
20260504202019 61 87 2.0 2.0 0.00 0.00 0.00 51
20260504201518 61 87 2.0 2.0 0.00 0.00 0.00 52
20260504200518 61 87 4.0 4.0 0.00 0.00 0.00 51
20260504200017 61 87 2.0 2.0 0.00 0.00 0.00 53
20260504195018 61 87 4.0 4.0 0.00 0.00 0.00 52
20260504193518 61 87 2.0 2.0 0.00 0.00 0.00 51
20260504193017 61 87 4.0 4.0 0.00 0.00 0.00 49
20260504192517 61 277 0.0 4.0 0.00 0.00 0.00 48
20260504192021 61 273 2.0 2.0 0.00 0.00 0.00 44
20260504191017 61 273 0.0 0.0 0.00 0.00 0.00 43
20260504185517 61 273 0.0 0.0 0.00 0.00 0.00 44
20260504185018 61 273 0.0 0.0 0.00 0.00 0.00 45
20260504184518 61 273 0.0 0.0 0.00 0.00 0.00 47
20260504184017 61 273 0.0 0.0 0.00 0.00 0.00 49
20260504183517 61 273 0.0 0.0 0.00 0.00 0.00 50
20260504183017 61 273 0.0 0.0 0.00 0.00 0.00 47
20260504182517 61 273 0.0 0.0 0.00 0.00 0.00 48
20260504182022 61 273 0.0 0.0 0.00 0.00 0.00 49
20260504181018 61 273 0.0 0.0 0.00 0.00 0.00 51
20260504180522 61 273 0.0 0.0 0.00 0.00 0.00 50
20260504180018 63 273 0.0 0.0 0.00 0.00 0.00 48
20260504175517 63 273 2.0 2.0 0.00 0.00 0.00 47
20260504175017 63 273 0.0 2.0 0.00 0.00 0.00 49
20260504174518 63 273 0.0 0.0 0.00 0.00 0.00 51
20260504174017 61 273 0.0 2.0 0.00 0.00 0.00 53
20260504173518 63 273 0.0 0.0 0.00 0.00 0.00 53
20260504170518 61 273 0.0 0.0 0.00 0.00 0.00 53
20260504151017 64 256 2.0 4.0 0.00 0.00 0.00 50
20260504150517 63 239 7.0 7.0 0.00 0.00 0.00 50
20260504141017 64 213 2.0 4.0 0.00 0.00 0.00 50
20260504140518 63 251 4.0 4.0 0.00 0.00 0.00 50
20260504130518 63 192 2.0 2.0 0.00 0.00 0.00 50
20260504110517 63 236 0.0 2.0 0.00 0.00 0.00 55
20260504100518 61 119 0.0 2.0 0.00 0.00 0.00 58
20260504081517 54 183 0.0 2.0 0.00 0.00 0.00 69
20260504081018 52 183 4.0 4.0 0.00 0.00 0.00 68
20260504050518 50 85 13.0 16.0 0.00 0.00 0.00 56
20260504050018 50 84 13.0 16.0 0.00 0.00 0.00 57
20260504045517 50 81 13.0 16.0 0.00 0.00 0.00 57
20260504045017 50 76 16.0 16.0 0.00 0.00 0.00 57
20260504044517 50 75 16.0 18.0 0.00 0.00 0.00 56
20260504044018 50 75 16.0 16.0 0.00 0.00 0.00 56
20260504043518 50 76 13.0 16.0 0.00 0.00 0.00 56
20260504043017 50 76 16.0 18.0 0.00 0.00 0.00 56
20260504042517 50 76 16.0 16.0 0.00 0.00 0.00 56
20260504041518 50 78 16.0 16.0 0.00 0.00 0.00 55
20260504041017 50 80 13.0 16.0 0.00 0.00 0.00 56
20260504040517 50 80 13.0 16.0 0.00 0.00 0.00 55
20260504040018 50 78 13.0 16.0 0.00 0.00 0.00 55
20260504035516 50 76 13.0 16.0 0.00 0.00 0.00 55
20260504035018 50 76 13.0 13.0 0.00 0.00 0.00 55
20260504034518 50 79 13.0 13.0 0.00 0.00 0.00 55
20260504034017 50 82 13.0 16.0 0.00 0.00 0.00 55
20260504033518 50 82 13.0 13.0 0.00 0.00 0.00 55
20260504033017 50 81 13.0 13.0 0.00 0.00 0.00 55
20260504032517 50 81 13.0 16.0 0.00 0.00 0.00 55
20260504032019 50 80 13.0 16.0 0.00 0.00 0.00 55
20260504031517 50 85 13.0 16.0 0.00 0.00 0.00 55
20260504031017 50 86 16.0 16.0 0.00 0.00 0.00 55
20260504030517 50 88 16.0 16.0 0.00 0.00 0.00 55
20260504030017 50 88 16.0 18.0 0.00 0.00 0.00 55
20260504025517 50 88 16.0 18.0 0.00 0.00 0.00 54
20260504025018 50 93 16.0 16.0 0.00 0.00 0.00 54
20260504024517 50 91 13.0 16.0 0.00 0.00 0.00 54
20260504024017 50 90 16.0 18.0 0.00 0.00 0.00 54
20260504023517 50 94 16.0 18.0 0.00 0.00 0.00 54
20260504023018 50 96 18.0 18.0 0.00 0.00 0.00 53
20260504022516 50 96 16.0 18.0 0.00 0.00 0.00 53
20260504022021 50 97 16.0 18.0 0.00 0.00 0.00 53
20260504021518 50 96 16.0 18.0 0.00 0.00 0.00 53
20260504021018 50 98 16.0 18.0 0.00 0.00 0.00 53
20260504020517 50 96 16.0 18.0 0.00 0.00 0.00 53
20260504020017 52 95 18.0 18.0 0.00 0.00 0.00 53
20260504015518 50 98 16.0 16.0 0.00 0.00 0.00 53
20260504015018 52 95 16.0 18.0 0.00 0.00 0.00 53
20260504014518 52 93 16.0 18.0 0.00 0.00 0.00 53
20260504014017 50 91 16.0 16.0 0.00 0.00 0.00 53
20260504013517 52 92 16.0 18.0 0.00 0.00 0.00 53
20260504013018 52 95 16.0 18.0 0.00 0.00 0.00 53
20260504012517 52 96 18.0 20.0 0.00 0.00 0.00 53
20260504012019 52 97 18.0 20.0 0.00 0.00 0.00 53
20260504011517 52 90 18.0 22.0 0.00 0.00 0.00 53
20260504011018 52 90 16.0 20.0 0.00 0.00 0.00 53
20260504010518 52 94 20.0 20.0 0.00 0.00 0.00 53